User: anonymous   Login
Location: San Francisco
(37.7750°N, 122.4180°W)
Time: 15:34:42
(UTC-07:00)
Language:

GP-B - Orbit

View from above orbital plane
View from above orbital plane
View from above satellite
View from above satellite

Ground track
Ground track

The orbit data is extracted from the following two-line orbital elements,

1 28230U 04014A   16267.63281115 +.00000179 +00000-0 +22293-4 0  9992
2 28230 089.8549 126.9794 0003153 078.1572 282.0004 14.78464148126912
Epoch (UTC): 23 September 2016 15:11:14
Eccentricity: 0.0003153
inclination: 89.8549°
perigee height: 632 km
apogee height: 636 km
right ascension of ascending node: 126.9794°
argument of perigee: 78.1572°
revolutions per day: 14.78464148
mean anomaly at epoch: 282.0004°
orbit number at epoch: 12691

The dashed part of the orbit path shows where the satellite is in the earth's shadow,  

DLR